This is the latest recevied weather packets stored in our database for station/object AF5AA. If no packets are shown the sender has not sent any weather packets the latest 1 day(s).
| Time | Temp. | Humidity | Pressure | Rain* | Wind** | Luminosity | Snow |
|---|---|---|---|---|---|---|---|
| 1778012232 | 27.78° C | 74% | 1005.7 hPa | 0 mm | 0.89 m/s, 195° | 127 W/m² | - |
| 1778011930 | 27.78° C | 75% | 1005.9 hPa | 0 mm | 0 m/s | 114 W/m² | - |
| 1778011628 | 27.78° C | 73% | 1005.8 hPa | 0 mm | 0 m/s | 105 W/m² | - |
| 1778011325 | 27.78° C | 73% | 1006 hPa | 0 mm | 0.45 m/s, 111° | 214 W/m² | - |
| 1778011021 | 27.78° C | 73% | 1006.1 hPa | 0 mm | 0.45 m/s, 135° | 87 W/m² | - |
| 1778010718 | 27.78° C | 72% | 1006.1 hPa | 0 mm | 0.45 m/s, 188° | 127 W/m² | - |
| 1778010415 | 28.33° C | 73% | 1006.1 hPa | 0 mm | 0.45 m/s, 192° | 139 W/m² | - |
| 1778010111 | 28.33° C | 72% | 1005.9 hPa | 0 mm | 0 m/s | 137 W/m² | - |
| 1778009808 | 27.78° C | 74% | 1006.1 hPa | 0 mm | 0 m/s | 263 W/m² | - |
| 1778009505 | 27.78° C | 74% | 1005.9 hPa | 0 mm | 0.45 m/s, 88° | 115 W/m² | - |
| 1778009204 | 27.78° C | 73% | 1006.1 hPa | 0 mm | 0 m/s | 152 W/m² | - |
| 1778008901 | 27.78° C | 75% | 1006.2 hPa | 0 mm | 0 m/s | 154 W/m² | - |
| 1778008599 | 27.22° C | 74% | 1006.3 hPa | 0 mm | 0 m/s | 130 W/m² | - |
| 1778008297 | 27.78° C | 75% | 1006.4 hPa | 0 mm | 0.45 m/s, 112° | 104 W/m² | - |
| 1778007993 | 27.78° C | 73% | 1006.2 hPa | 0 mm | 0.45 m/s, 179° | 113 W/m² | - |
| 1778007687 | 27.78° C | 74% | 1006.3 hPa | 0 mm | 0.45 m/s, 114° | 156 W/m² | - |
| 1778007384 | 27.78° C | 75% | 1006.5 hPa | 0 mm | 0 m/s | 226 W/m² | - |
| 1778007081 | 27.22° C | 75% | 1006.3 hPa | 0 mm | 0.45 m/s, 127° | 279 W/m² | - |
| 1778006777 | 27.22° C | 76% | 1006.4 hPa | 0 mm | 0.45 m/s, 127° | 275 W/m² | - |
| 1778006474 | 26.67° C | 77% | 1006.2 hPa | 0 mm | 0.45 m/s, 116° | 223 W/m² | - |
| 1778006171 | 26.67° C | 77% | 1006.4 hPa | 0 mm | 0 m/s | 145 W/m² | - |
| 1778005869 | 26.67° C | 78% | 1006.6 hPa | 0 mm | 0.89 m/s, 72° | 177 W/m² | - |
| 1778005564 | 26.67° C | 77% | 1006.5 hPa | 0 mm | 0.45 m/s, 144° | 156 W/m² | - |
| 1778005262 | 26.11° C | 78% | 1006.6 hPa | 0 mm | 0 m/s | 81 W/m² | - |
| 1778004958 | 26.11° C | 77% | 1006.7 hPa | 0 mm | 0.45 m/s, 166° | 107 W/m² | - |
* Rain latest hour (hover to see other rain measurements)
** Current wind speed in m/s (hover to see current wind gust speed)